User: anonymous   Login
Location: Asheville, NC
(35.6000°N, 82.5500°W)
Time: 21:54:53
(UTC-04:00)
Language:

CUTE 1.7 + AOD 2 - Orbit

View from above orbital plane
View from above orbital plane
View from above satellite
View from above satellite

Ground track
Ground track

The orbit data is extracted from the following two-line orbital elements,

1 32785U 08021C   18114.99486652  .00000245  00000-0  32241-4 0  9997
2 32785  97.5497 129.7067 0012286 208.8354 151.2186 14.88100354541265
Epoch (UTC): 24 April 2018 23:52:36
Eccentricity: 0.0012286
inclination: 97.5497°
perigee height: 595 km
apogee height: 612 km
right ascension of ascending node: 129.7067°
argument of perigee: 208.8354°
revolutions per day: 14.88100354
mean anomaly at epoch: 151.2186°
orbit number at epoch: 54126

The dashed part of the orbit path shows where the satellite is in the earth's shadow,  

DLR